This demonstration page uses our WeatherBlox Daily Observations layout. Learn more.

Left ArrowRight Arrow

41.12389, -100.76542

Hourly Observations for January 13, 2018

Temp ( °F °C ) Dew Point ( °F °C ) Humidity (%) Winds ( mph kmh ) Pressure ( in mb ) Visibility ( mi km ) Precip ( " mm )
12:31 am 00:31 Partly Cloudy 4 -15.6 -2 -18.9 76 76 N 3 6 30.80 1043 10 16 0.00 0.00
12:53 am 00:53 Mostly Cloudy 3 -16.1 -2 -18.9 79 79 Calm 30.69 1039 10 16 0.00 0.00
1:53 am 01:53 Cloudy 4 -15.6 -2 -18.9 76 76 Calm 30.67 1039 10 16 0.00 0.00
2:53 am 02:53 Cloudy 3 -16.1 -4 -20 72 72 ENE 3 6 30.67 1039 10 16 0.00 0.00
3:53 am 03:53 Cloudy 2 -16.7 -4 -20 76 76 Calm 30.68 1039 10 16 0.00 0.00
4:21 am 04:21 Cloudy 4 -15.6 -2 -18.9 76 76 ENE 3 6 30.80 1043 10 16 0.00 0.00
4:53 am 04:53 Mostly Cloudy 1 -17.2 -6 -21.1 72 72 NE 5 7 30.66 1038 10 16 0.00 0.00
5:53 am 05:53 Cloudy 3 -16.1 -3 -19.4 76 76 ENE 3 6 30.66 1038 10 16 0.00 0.00
6:40 am 06:40 Cloudy 3 -16.1 -3 -19.4 76 76 E 6 9 30.77 1042 10 16 0.00 0.00
6:53 am 06:53 Cloudy 4 -15.6 -2 -18.9 76 76 ESE 6 9 30.64 1038 10 16 0.00 0.00
7:53 am 07:53 Cloudy 6 -14.4 0 -17.8 76 76 SSE 8 13 30.65 1038 10 16 0.00 0.00
8:40 am 08:40 Cloudy with Light Snow 6 -14.4 0 -17.8 76 76 SE 7 11 30.74 1041 2 3 0.00 0.03
8:49 am 08:49 Cloudy with Light Snow 7 -14 1 -17 78 78 ESE 6 9 30.74 1041 1 2 0.00 0.03
8:53 am 08:53 Cloudy with Light Snow 6 -14.4 1 -17.2 79 79 ESE 7 11 30.66 1038 1 2 0.00 0.03
9:18 am 09:18 Cloudy with Light Snow 7 -13.9 1 -17.2 76 76 SE 6 9 30.74 1041 2 3 0.01 0.25
9:27 am 09:27 Cloudy with Light Snow 7 -13.9 2 -16.7 80 80 SE 6 9 30.74 1041 5 8 0.01 0.25
9:53 am 09:53 Cloudy with Haze 8 -13.3 3 -16.1 80 80 SE 5 7 30.65 1038 6 10 0.01 0.25
10:04 am 10:04 Cloudy 9 -12.8 2 -16.7 73 73 SE 6 9 30.71 1040 7 11 0.00 0.00
10:53 am 10:53 Cloudy 10 -12.2 2 -16.7 69 69 S 8 13 30.64 1038 9 14 0.00 0.00
11:53 am 11:53 Cloudy 12 -11.1 4 -15.6 70 70 S 7 11 30.60 1036 10 16 0.00 0.00
12:01 pm 12:01 Cloudy 12 -11.1 5 -15 73 73 S 7 11 30.68 1039 10 16 0.00 0.00
12:53 pm 12:53 Cloudy 14 -10 7 -13.9 73 73 SSW 8 13 30.56 1035 10 16 0.00 0.00
1:26 pm 13:26 Cloudy 15 -9.4 8 -13.3 74 74 S 10 17 30.59 1036 10 16 0.00 0.00
1:37 pm 13:37 Cloudy 15 -9.4 8 -13.3 74 74 S 14 22 30.59 1036 10 16 0.00 0.00
1:48 pm 13:48 Cloudy 16 -9 9 -13 73 73 SSW 10 17 30.53 1034 10 16 0.00 0.00
1:53 pm 13:53 Cloudy 16 -8.9 9 -12.8 74 74 S 9 15 30.49 1033 10 16 0.00 0.00
2:34 pm 14:34 Cloudy 16 -8.9 9 -12.8 74 74 S 12 19 30.53 1034 10 16 0.00 0.00
2:53 pm 14:53 Cloudy 16 -8.9 9 -12.8 74 74 S 12 19 30.47 1032 10 16 0.00 0.00
3:21 pm 15:21 Mostly Cloudy 17 -8.3 10 -12.2 74 74 S 12 19 30.50 1033 10 16 0.00 0.00
3:53 pm 15:53 Cloudy 18 -7.8 11 -11.7 74 74 S 9 15 30.48 1032 10 16 0.00 0.00
4:53 pm 16:53 Cloudy 18 -7.8 11 -11.7 74 74 S 9 15 30.48 1032 10 16 0.00 0.00
5:20 pm 17:20 Cloudy 18 -7.8 11 -11.7 74 74 S 8 13 30.53 1034 10 16 0.00 0.00
5:53 pm 17:53 Cloudy with Light Snow 19 -7.2 12 -11.1 74 74 S 8 13 30.46 1032 5 8 0.00 0.03
6:53 pm 18:53 Cloudy 19 -7.2 12 -11.1 74 74 S 8 13 30.46 1032 10 16 0.00 0.03
7:12 pm 19:12 Cloudy with Light Snow 19 -7.2 13 -10.6 77 77 S 8 13 30.48 1032 2 3 0.00 0.03
7:24 pm 19:24 Cloudy with Light Snow 19 -7.2 13 -10.6 77 77 S 8 13 30.48 1032 3 5 0.00 0.03
7:53 pm 19:53 Cloudy 19 -7.2 14 -10 81 81 S 7 11 30.45 1031 7 11 0.00 0.03
8:53 pm 20:53 Cloudy 20 -6.7 15 -9.4 81 81 SSW 6 9 30.43 1031 10 16 0.00 0.00
9:53 pm 21:53 Cloudy with Light Snow 22 -5.6 16 -8.9 78 78 SW 7 11 30.43 1031 5 8 0.01 0.25
10:03 pm 22:03 Cloudy with Light Snow 22 -5.6 17 -8.3 82 82 WSW 3 6 30.48 1032 2 3 0.00 0.03
10:12 pm 22:12 Cloudy with Light Snow 22 -5.6 17 -8.3 82 82 WSW 8 13 30.48 1032 2 3 0.00 0.03
10:53 pm 22:53 Cloudy with Light Snow 23 -5 18 -7.8 81 81 SW 6 9 30.42 1030 3 5 0.01 0.25
11:32 pm 23:32 Cloudy 23 -5 19 -7.2 85 85 SW 5 7 30.42 1030 7 11 0.00 0.03
11:53 pm 23:53 Cloudy 24 -4.4 19 -7.2 81 81 WSW 6 9 30.40 1029 10 16 0.00 0.03

Powered by AerisWeather